This is the latest recevied weather packets stored in our database for station/object IU1FIL-23. If no packets are shown the sender has not sent any weather packets the latest 1 day(s).
| Time | Temp. | Humidity | Pressure | Rain* | Wind** | Luminosity | Snow |
|---|---|---|---|---|---|---|---|
| 1777781008 | 10° C | 40% | 1021.7 hPa | - | - | - | - |
| 1777780404 | 10° C | 39% | 1021.7 hPa | - | - | - | - |
| 1777779800 | 9.44° C | 40% | 1021.7 hPa | - | - | - | - |
| 1777779196 | 10° C | 39% | 1021.7 hPa | - | - | - | - |
| 1777778590 | 10° C | 39% | 1021.7 hPa | - | - | - | - |
| 1777777978 | 10° C | 39% | 1021.8 hPa | - | - | - | - |
| 1777777374 | 10.56° C | 37% | 1021.9 hPa | - | - | - | - |
| 1777776770 | 10.56° C | 37% | 1021.8 hPa | - | - | - | - |
| 1777776166 | 10.56° C | 37% | 1021.9 hPa | - | - | - | - |
| 1777775561 | 11.11° C | 35% | 1022 hPa | - | - | - | - |
| 1777774957 | 11.11° C | 34% | 1022 hPa | - | - | - | - |
| 1777774353 | 11.11° C | 34% | 1022 hPa | - | - | - | - |
| 1777773749 | 11.11° C | 35% | 1022 hPa | - | - | - | - |
| 1777773145 | 11.11° C | 35% | 1022.1 hPa | - | - | - | - |
| 1777772541 | 10.56° C | 40% | 1022.1 hPa | - | - | - | - |
| 1777771937 | 10.56° C | 40% | 1022.2 hPa | - | - | - | - |
| 1777771333 | 11.11° C | 40% | 1022.2 hPa | - | - | - | - |
| 1777770729 | 11.11° C | 40% | 1022.3 hPa | - | - | - | - |
| 1777770124 | 11.11° C | 38% | 1022.3 hPa | - | - | - | - |
| 1777769520 | 11.67° C | 36% | 1022.4 hPa | - | - | - | - |
| 1777768916 | 11.67° C | 33% | 1022.4 hPa | - | - | - | - |
| 1777768312 | 11.11° C | 37% | 1022.6 hPa | - | - | - | - |
| 1777767708 | 11.11° C | 39% | 1022.8 hPa | - | - | - | - |
| 1777767104 | 11.11° C | 41% | 1022.9 hPa | - | - | - | - |
| 1777766500 | 11.67° C | 39% | 1022.9 hPa | - | - | - | - |
* Rain since midnight (hover to see other rain measurements)
** Current wind speed in m/s (hover to see current wind gust speed)